Flag for Argentina Weather past 2 weeks in Jujuy, Jujuy, Argentina

Now
91 °F

Passing clouds.


Feels Like: 97 °F
Forecast: N/A
Wind: 9 mph from East

Location: Jujuy Aerodrome

Current Time: Dec 20, 2014 at 6:02:14 PM

Latest Report: Dec 20, 2014 at 5:00 PM


Visibility: N/A

Pressure: 29.45 "Hg

Humidity: 49%

Dew point: 70 °F

Location of JujuyLocation

Historic Weather in Jujuy — Graph

°F

Jujuy temperature yesterday

Maximum temperature yesterday: 86 °F (at 4:00 PM)
Minimum temperature yesterday: 63 °F (at 5:00 AM)
Average temperature yesterday: 75 °F

Past Weeks' High & Low Weather Summary

 TemperatureHumidityPressure
High97 °F (Dec 6, 3:00 PM)100% (Dec 14, 12:00 AM)30.09 "Hg (Dec 14, 12:00 AM)
Low61 °F (Dec 11, 7:00 AM)19% (Dec 6, 2:00 PM)29.45 "Hg (Dec 20, 5:00 PM)
Average75 °F71%29.87 "Hg
* Reported Dec 5 5:00 PM — Dec 20 5:00 PM, Jujuy, Weather by CustomWeather, © 2014

Note: Actual official high and low records may vary slightly from our data, if they occured in-between our weather recording intervals... More about our weather records

Advertising

Jujuy weather history for previous 24 hours

 ConditionsComfort  
Time TempWeatherWind HumidityBarometerVisibility
5:00 PM
Dec 20
91 °FPassing clouds.9 mph49%29.45 "HgN/A
4:00 PM91 °FPassing clouds.8 mph46%29.47 "HgN/A
3:00 PM91 °FPassing clouds.9 mph44%29.50 "HgN/A
2:00 PM90 °FPassing clouds.7 mph52%29.53 "HgN/A
1:00 PM88 °FPassing clouds.No wind55%29.56 "HgN/A
12:00 PM84 °FScattered clouds.3 mph58%29.59 "HgN/A
11:00 AM81 °FPassing clouds.No wind62%29.59 "HgN/A
10:00 AM79 °FPassing clouds.No wind70%29.62 "HgN/A
9:00 AM75 °FSunny.No wind74%29.65 "Hg10 mi
8:00 AM70 °FSunny.No wind83%29.65 "Hg10 mi
7:00 AM68 °FSunny.2 mph83%29.62 "Hg10 mi
6:00 AM68 °FSunny.3 mph83%29.62 "Hg10 mi
5:00 AM68 °FClear.5 mph94%29.62 "Hg10 mi
4:00 AM70 °FClear.3 mph88%29.62 "Hg10 mi
3:00 AM72 °FClear.No wind88%29.65 "Hg10 mi
2:00 AM73 °FPartly cloudy.No wind83%29.68 "HgN/A
1:00 AM73 °FClear.No wind83%29.71 "Hg10 mi
12:00 AM75 °FPartly cloudy.No wind74%29.71 "HgN/A
11:00 PM
Dec 19
77 °FClear.3 mph69%29.71 "Hg10 mi
10:00 PM77 °FPartly cloudy.6 mph69%29.71 "HgN/A
9:00 PM77 °FPartly cloudy.3 mph65%29.68 "HgN/A
8:00 PM79 °FPassing clouds.9 mph61%29.65 "HgN/A
7:00 PM81 °FScattered clouds.12 mph58%29.65 "HgN/A
6:00 PM82 °FScattered clouds.12 mph55%29.65 "HgN/A
Weather by CustomWeather, © 2014

See weather overviewHow to use our weather pages